Location: Unspecified
(49.2170°N, 0.0000°E)
Time: 17:00:03
(UTC+00:00)

Transit 4A - Pass Details

Date: 19 June 2019
Orbit: 863 x 981 km, 66.8° (Epoch: 17 August)

Event Time Altitude Azimuth Distance (km) Brightness Sun altitude
Rises 10:18:43 0° 241° (WSW) 3,627 10.9 57.3°
Reaches altitude 10° 10:21:24 10° 248° (WSW) 2,699 10.3 57.6°
Maximum altitude 10:27:22 42° 318° (NW) 1,360 9.0 58.3°
Drops below altitude 10° 10:33:28 10° 29° (NNE) 2,745 10.4 59.0°
Sets 10:36:13 0° 36° (NE) 3,695 11.0 59.3°
